Content
SEND FEEDBACK

Daily
Averages
Monthly
Summary
United States of America

CHICAGO, ILLINOIS


Home > North America > United States > Illinois
Elevation: 674 feet     Latitude: 41 59N     Longitude: 087 54W

WEATHER
 
SELECT A DAY
Number of Records: 197,256;   Date Range: 7/8/95 - 9/30/14
 
SHARE

PRINT THIS DATA

[ ← Previous Day ]
WEATHER ALMANAC - JANUARY 3, 2014
[ Next Day → ]
[ °C ]   °F
Weather ElementAverageHighLow
Temperature10.5 °F19.9 °F (10:52 pm)-6 °F (7:52 am)
Dewpoint3 °F12 °F (9:52 pm)-8 °F (1:52 am)
Humidity71.9 %91 % (7:52 am)61 % (9:52 am)
Barometer30.23 in30.47 in (2:52 am)29.95 in (9:06 pm)
Wind Speed15.2 mph29.9 mph (8:59 pm)
Wind Gust40.3 mph (8:52 pm)
Weather ElementAverage
Visibility7 mi
Wind DirectionSSW (193.5 °)

Weather ElementTotal
Precipitation---
Heating Degree Days58.1 (Base 65)
Averaged from 31 records on January 3, 2014
WEATHER CONDITIONS BREAKOUT
WIND DIRECTION BREAKOUT
WEATHER BY HOUR - JANUARY 3, 2014
[ °C ]   °F
Local TimeTemperatureDewpointHumidityBarometerVisibilityWind DirectionWind SpeedGust SpeedPrecipitationEventsConditions
1:52 AM-0.9 °F-8.0 °F72 %30.45 in10.0 miNW (320°)3.5 mphClear
2:05 AM-0.4 °F-5.8 °F78 %30.40 in2.5 miNW (320°)3.5 mphHaze
2:19 AM1.4 °F-5.8 °F72 %30.41 in4.0 miNW (310°)3.5 mphHaze
2:52 AM0.0 °F-6.0 °F76 %30.47 in8.0 miNW (320°)4.6 mphPartly Cloudy
3:52 AM-0.9 °F-7.1 °F75 %30.45 in10.0 miCalmClear
4:52 AM-0.9 °F-7.1 °F75 %30.46 in10.0 miWest (270°)3.5 mphClear
5:52 AM-2.0 °F-7.1 °F79 %30.46 in10.0 miCalmClear
6:52 AM-2.9 °F-8.0 °F79 %30.47 in10.0 miSSW (200°)3.5 mphClear
7:52 AM-6.0 °F-8.0 °F91 %30.46 in4.0 miSSE (150°)4.6 mphClear
8:52 AM1.0 °F-4.0 °F79 %30.46 in10.0 miSouth (190°)4.6 mphClear
9:52 AM7.0 °F-4.0 °F61 %30.44 in10.0 miSouth (190°)8.1 mphClear
10:52 AM10.0 °F0.0 °F64 %30.42 in10.0 miSouth (190°)11.5 mphScattered Clouds
11:52 AM10.9 °F0.0 °F61 %30.38 in10.0 miSSW (200°)11.5 mph20.7 mphClear
12:52 PM12.9 °F1.9 °F62 %30.31 in10.0 miSouth (180°)15.0 mphClear
1:52 PM15.1 °F3.9 °F61 %30.26 in10.0 miSouth (180°)17.3 mphMostly Cloudy
2:52 PM16.0 °F7.0 °F68 %30.24 in10.0 miSouth (180°)19.6 mph25.3 mphMostly Cloudy
3:52 PM17.1 °F7.0 °F65 %30.20 in7.0 miSouth (180°)21.9 mph28.8 mphMostly Cloudy
4:52 PM17.1 °F8.1 °F68 %30.17 in7.0 miSouth (190°)19.6 mph29.9 mphPartly Cloudy
5:52 PM16.0 °F8.1 °F71 %30.13 in6.0 miSouth (180°)23.0 mph31.1 mphHaze
6:52 PM16.0 °F8.1 °F71 %30.10 in6.0 miSouth (180°)23.0 mph31.1 mphHaze
7:33 PM17.6 °F10.4 °F73 %30.04 in2.5 miSouth (180°)23.0 mph35.7 mphHaze
7:36 PM17.6 °F10.4 °F73 %30.03 in6.0 miSouth (190°)24.2 mph35.7 mphHaze
7:52 PM17.1 °F10.0 °F74 %30.08 in6.0 miSouth (190°)21.9 mph39.1 mphHaze
8:10 PM17.6 °F10.4 °F73 %30.00 in2.0 miSouth (180°)26.5 mph38.0 mphHaze
8:17 PM17.6 °F10.4 °F73 %30.00 in5.0 miSouth (190°)21.9 mph36.8 mphHaze
8:52 PM18.0 °F10.9 °F74 %30.00 in5.0 miSouth (190°)26.5 mph40.3 mphHaze
8:59 PM17.6 °F10.4 °F73 %29.96 in2.5 miSouth (190°)29.9 mph39.1 mphHaze
9:06 PM17.6 °F10.4 °F73 %29.95 in5.0 miSouth (180°)27.6 mph39.1 mphHaze
9:52 PM19.0 °F12.0 °F74 %29.99 in5.0 miSouth (190°)25.3 mph35.7 mphHaze
10:52 PM19.9 °F12.0 °F71 %29.96 in4.0 miSouth (190°)23.0 mph35.7 mphHaze
11:52 PM19.9 °F12.0 °F71 %29.95 in8.0 miSSW (200°)19.6 mph31.1 mphClear
Hourly data recorded from KPWK, located miles away from Chicago, Illinois







STORIES FROM OUR PARTNERS